Weather reports worldwide

Advertisment
Weybourne, United Kingdom (3488): temperature & dewpoint: 19.06.2018 03:00:00 - 25.06.2018 03:00:00 (BST)Weybourne, United Kingdom (3488): wind speed & gusts: 19.06.2018 03:00:00 - 25.06.2018 03:00:00 (BST)Weybourne, United Kingdom (3488): wind direction: 19.06.2018 03:00:00 - 25.06.2018 03:00:00 (BST)Weybourne, United Kingdom (3488): reduced air pressure: 19.06.2018 03:00:00 - 25.06.2018 03:00:00 (BST)Weybourne, United Kingdom (3488): visibility: 19.06.2018 03:00:00 - 25.06.2018 03:00:00 (BST)Weybourne, United Kingdom (3488): sunshine duration: 19.06.2018 03:00:00 - 25.06.2018 03:00:00 (BST)Weybourne, United Kingdom (3488): precipitation: 19.06.2018 03:00:00 - 25.06.2018 03:00:00 (BST)
Date & Time tt [°C] td [°C] ff [km/h] ff [kn] fx [km/h] fx [kn] dd ppp [hPa] vv [km] sd [min] rr [mm]
25.06.2018 03:00:00 13,5 9,7 21 11 - - SSW 1025,1 40 0 0,0
25.06.2018 02:00:00 14,1 9,9 18 10 - - S 1025,3 50 0 0,0
25.06.2018 01:00:00 14,7 9,8 18 10 - - S 1025,4 40 - 0,0
25.06.2018 00:00:00 13,6 9,2 11 6 - - S 1025,6 50 0 0,0
24.06.2018 23:00:00 13,3 9,3 13 7 - - SSE 1025,7 50 0 0,0
24.06.2018 22:00:00 12,6 8,0 8 4 - - SE 1025,6 50 6 0,0
24.06.2018 21:00:00 16,0 11,8 11 6 - - E 1025,2 28 36 0,0
24.06.2018 20:00:00 16,0 11,4 9 5 - - E 1025,0 45 48 0,0
24.06.2018 19:00:00 16,7 11,3 11 6 - - ENE 1025,1 50 60 0,0
24.06.2018 18:00:00 17,1 11,6 9 5 - - ENE 1025,4 27 60 0,0
24.06.2018 17:00:00 16,9 11,2 5 3 - - NE 1025,7 30 60 0,0
24.06.2018 16:00:00 17,1 11,4 8 4 - - NE 1026,1 30 60 0,0
24.06.2018 15:00:00 17,1 11,0 9 5 - - N 1026,1 35 60 0,0
24.06.2018 14:00:00 17,0 11,6 9 5 - - NNE 1026,3 30 60 0,0
24.06.2018 13:00:00 17,3 10,6 11 6 - - N 1026,5 35 60 0,0
24.06.2018 12:00:00 17,4 11,3 11 6 - - NNW 1026,5 30 60 0,0
24.06.2018 11:00:00 17,2 12,7 11 6 - - NNW 1026,2 40 60 0,0
24.06.2018 10:00:00 16,3 11,7 11 6 - - NNW 1026,4 24 60 0,0
24.06.2018 09:00:00 16,3 10,5 11 6 - - NW 1026,1 30 60 0,0
24.06.2018 08:00:00 14,8 11,6 9 5 - - WNW 1026,0 30 60 0,0
24.06.2018 07:00:00 12,1 11,9 5 3 - - SW 1025,8 35 24 0,0
24.06.2018 06:00:00 9,0 8,9 9 5 - - SW 1025,7 35 0 0,0
24.06.2018 05:00:00 6,9 6,6 8 4 - - WSW 1025,3 29 0 0,0
24.06.2018 04:00:00 7,4 7,1 11 6 - - SSW 1025,3 16 0 0,0
24.06.2018 03:00:00 7,4 7,1 11 6 - - SSW 1025,5 20 0 0,0
24.06.2018 02:00:00 7,5 7,0 9 5 - - SSW 1025,7 22 0 0,0
24.06.2018 01:00:00 7,5 6,5 4 2 - - SW 1026,0 19 - 0,0
24.06.2018 00:00:00 8,8 7,6 4 2 - - NE 1026,4 24 0 0,0
23.06.2018 23:00:00 10,2 7,8 4 2 - - NE 1026,6 30 0 0,0
23.06.2018 22:00:00 11,6 8,1 9 5 - - NE 1026,5 45 0 0,0
23.06.2018 21:00:00 12,4 9,1 9 5 - - NNE 1026,4 45 0 0,0
23.06.2018 20:00:00 13,7 9,2 5 3 - - N 1025,9 50 0 0,0
23.06.2018 19:00:00 14,2 8,4 4 2 - - NE 1026,1 50 0 0,0
23.06.2018 18:00:00 14,8 9,6 5 3 - - NNE 1026,5 21 60 0,0
23.06.2018 17:00:00 14,9 9,2 8 4 - - NE 1026,7 27 60 0,0
23.06.2018 16:00:00 15,1 10,3 11 6 - - NNE 1027,2 45 18 0,0
23.06.2018 15:00:00 14,4 9,9 13 7 - - N 1027,6 35 18 0,0
23.06.2018 14:00:00 16,7 10,7 11 6 - - N 1027,5 50 54 0,0
23.06.2018 13:00:00 16,0 9,7 13 7 - - N 1027,9 45 48 0,0
23.06.2018 12:00:00 17,2 10,0 18 10 - - NW 1028,0 45 30 0,0
23.06.2018 11:00:00 16,8 10,5 21 11 - - WNW 1027,9 40 30 0,0
23.06.2018 10:00:00 16,1 11,8 16 9 - - WNW 1028,0 30 60 0,0
23.06.2018 09:00:00 16,1 10,9 24 13 - - WNW 1028,0 29 60 0,0
23.06.2018 08:00:00 15,0 10,0 15 8 - - WSW 1027,8 40 60 0,0
23.06.2018 07:00:00 12,3 8,7 13 7 - - SW 1027,8 45 54 0,0
23.06.2018 06:00:00 9,9 8,1 13 7 - - SSW 1027,8 45 18 0,0
23.06.2018 05:00:00 9,9 7,4 16 9 - - SSW 1028,1 35 0 0,0
23.06.2018 04:00:00 10,5 7,4 18 10 - - S 1028,5 45 0 0,0
23.06.2018 03:00:00 9,0 4,6 9 5 - - S 1029,2 50 0 0,0
23.06.2018 02:00:00 7,1 4,9 11 6 - - S 1029,4 40 0 0,0
23.06.2018 01:00:00 6,2 4,2 5 3 - - S 1029,6 40 - 0,0
23.06.2018 00:00:00 6,8 4,1 2 1 - - S 1029,9 30 0 0,0
22.06.2018 23:00:00 7,9 4,5 4 2 - - SE 1030,1 50 0 0,0
22.06.2018 22:00:00 9,6 4,7 2 1 - - S 1030,1 35 6 0,0
22.06.2018 21:00:00 12,1 5,1 2 1 - - E 1030,0 40 60 0,0
22.06.2018 20:00:00 13,3 5,8 8 4 - - E 1029,8 50 60 0,0
22.06.2018 19:00:00 13,6 6,5 4 2 - - ENE 1030,1 40 60 0,0
22.06.2018 18:00:00 14,0 8,1 15 8 - - NNE 1030,8 35 60 0,0
22.06.2018 17:00:00 14,5 8,6 21 11 - - N 1031,0 26 60 0,0
22.06.2018 16:00:00 14,8 8,7 26 14 - - N 1031,0 22 60 0,0
22.06.2018 15:00:00 14,8 7,9 28 15 - - NNW 1031,1 19 60 0,0
22.06.2018 14:00:00 15,6 7,8 26 14 46 25 NNW 1031,1 35 60 0,0
22.06.2018 13:00:00 15,4 8,3 31 17 - - NNW 1031,1 22 60 0,0
22.06.2018 12:00:00 15,2 8,6 31 17 - - NNW 1031,2 19 54 0,0
22.06.2018 11:00:00 14,7 7,5 31 17 - - NNW 1030,6 24 60 0,0
22.06.2018 10:00:00 14,5 7,5 34 18 - - NNW 1030,3 28 60 0,0
22.06.2018 09:00:00 13,8 7,1 35 19 - - NNW 1030,1 30 60 0,0
22.06.2018 08:00:00 13,6 7,4 37 20 48 26 NNW 1029,4 18 60 0,0
22.06.2018 07:00:00 13,1 7,0 37 20 48 26 NNW 1028,9 35 60 0,0
22.06.2018 06:00:00 13,1 8,0 39 21 54 29 NNW 1028,4 40 48 0,0
22.06.2018 05:00:00 13,0 7,3 39 21 46 25 NNW 1028,2 30 0 0,0
22.06.2018 04:00:00 12,7 10,4 29 16 - - NW 1027,9 21 0 0,0
22.06.2018 03:00:00 9,5 7,2 16 9 - - W 1027,8 50 0 0,0
22.06.2018 02:00:00 9,6 5,9 15 8 - - WSW 1027,8 50 0 0,0
22.06.2018 01:00:00 9,7 6,1 13 7 - - WSW 1027,7 50 - 0,0
22.06.2018 00:00:00 11,9 6,8 11 6 - - W 1028,1 50 0 0,0
21.06.2018 23:00:00 12,6 6,6 9 5 - - W 1028,4 50 0 0,0
21.06.2018 22:00:00 13,2 6,1 16 9 - - WNW 1028,1 50 0 0,0
21.06.2018 21:00:00 12,8 6,1 9 5 - - W 1027,8 50 18 0,0
21.06.2018 20:00:00 14,8 5,6 11 6 - - WNW 1027,6 50 60 0,0
21.06.2018 19:00:00 14,9 6,0 13 7 - - NNW 1027,5 40 60 0,0
21.06.2018 18:00:00 14,6 5,7 24 13 - - N 1027,3 40 60 0,0
21.06.2018 17:00:00 14,8 6,1 28 15 - - N 1027,2 30 60 0,0
21.06.2018 16:00:00 15,1 6,8 31 17 - - NNW 1026,9 23 60 0,0
21.06.2018 15:00:00 14,9 6,2 35 19 46 25 NNW 1026,6 21 60 0,0
21.06.2018 14:00:00 15,5 7,5 35 19 - - NNW 1026,1 30 60 0,0
21.06.2018 13:00:00 15,1 7,0 35 19 46 25 NNW 1025,6 16 60 0,0
21.06.2018 12:00:00 14,6 7,5 41 22 52 28 NW 1024,9 21 48 0,0
21.06.2018 11:00:00 14,4 7,5 41 22 54 29 NW 1023,8 35 42 0,0
21.06.2018 10:00:00 13,1 6,2 39 21 55 30 NW 1022,9 30 24 0,0
21.06.2018 09:00:00 13,2 7,6 46 25 59 32 NNW 1021,9 35 18 0,0
21.06.2018 08:00:00 12,1 6,9 46 25 57 31 NW 1021,2 30 12 0,0
21.06.2018 07:00:00 11,8 6,4 46 25 63 34 WNW 1020,6 50 30 0,0
21.06.2018 06:00:00 11,7 7,2 37 20 52 28 WNW 1020,0 50 6 0,0
21.06.2018 05:00:00 11,6 6,7 42 23 61 33 WNW 1019,6 50 0 0,0
21.06.2018 04:00:00 12,0 6,1 42 23 57 31 WNW 1019,3 45 0 0,0
21.06.2018 03:00:00 13,5 8,2 41 22 57 31 NW 1019,2 50 0 0,0
21.06.2018 02:00:00 13,9 9,5 37 20 52 28 WNW 1018,5 50 0 0,0
21.06.2018 01:00:00 12,3 11,1 13 7 - - WSW 1018,5 50 - 0,0
21.06.2018 00:00:00 12,2 10,4 9 5 - - W 1018,5 50 0 0,0
20.06.2018 23:00:00 12,7 11,5 13 7 - - NW 1018,8 35 0 0,0
20.06.2018 22:00:00 12,5 11,1 8 4 - - N 1018,6 45 0 0,0
20.06.2018 21:00:00 13,4 11,1 13 7 - - N 1018,2 45 0 0,0
20.06.2018 20:00:00 14,5 11,5 15 8 - - N 1017,8 40 0 0,0
20.06.2018 19:00:00 16,3 12,8 22 12 - - N 1017,1 40 0 0,0
20.06.2018 18:00:00 22,3 14,5 31 17 46 25 W 1016,2 50 0 0,0
20.06.2018 17:00:00 24,5 13,2 39 21 54 29 W 1016,1 40 54 0,0
20.06.2018 16:00:00 24,7 15,1 35 19 52 28 WSW 1016,3 45 36 0,0
20.06.2018 15:00:00 22,9 19,0 24 13 - - WSW 1016,6 35 6 0,2
20.06.2018 14:00:00 23,9 16,7 31 17 46 25 SW 1016,5 45 6 0,0
20.06.2018 13:00:00 23,8 16,2 29 16 52 28 SW 1016,8 50 36 0,0
20.06.2018 12:00:00 23,1 16,1 37 20 52 28 SW 1017,1 40 54 0,0
20.06.2018 11:00:00 22,5 15,9 39 21 57 31 SW 1017,4 50 60 0,0
20.06.2018 10:00:00 21,2 15,7 41 22 55 30 SSW 1017,2 45 60 0,0
20.06.2018 09:00:00 19,8 15,7 37 20 54 29 SW 1017,6 35 60 0,0
20.06.2018 08:00:00 18,4 15,0 35 19 52 28 SW 1017,9 50 42 0,0
20.06.2018 07:00:00 17,9 15,1 24 13 - - SW 1018,4 50 42 0,0
20.06.2018 06:00:00 16,6 14,5 28 15 - - SW 1018,7 50 42 0,0
20.06.2018 05:00:00 15,7 14,3 24 13 - - SW 1018,6 50 0 0,0
20.06.2018 04:00:00 16,1 14,8 28 15 - - SW 1018,6 50 0 0,0
20.06.2018 03:00:00 16,4 14,9 24 13 - - SW 1018,9 50 0 0,0
20.06.2018 02:00:00 16,9 15,1 22 12 - - SW 1019,4 50 0 0,0
20.06.2018 01:00:00 17,2 15,3 18 10 - - SSW 1019,8 50 - 0,0
20.06.2018 00:00:00 17,9 15,6 18 10 - - SSW 1020,0 50 0 0,0
19.06.2018 23:00:00 18,7 15,8 21 11 - - SSW 1020,0 50 0 0,0
19.06.2018 22:00:00 19,1 15,7 15 8 - - SSW 1020,3 50 0 0,0
19.06.2018 21:00:00 20,9 15,9 24 13 - - SW 1019,9 50 24 0,0
19.06.2018 20:00:00 21,8 16,5 15 8 - - SW 1019,9 50 0 0,0
19.06.2018 19:00:00 22,2 16,2 21 11 - - SW 1019,9 50 0 0,0
19.06.2018 18:00:00 22,5 15,9 21 11 - - SW 1020,0 50 0 0,0
19.06.2018 17:00:00 23,0 16,4 21 11 - - SSW 1020,4 21 0 0,0
19.06.2018 16:00:00 19,5 15,9 15 8 - - SE 1020,9 50 0 0,0
19.06.2018 15:00:00 19,2 15,6 15 8 - - ESE 1021,5 30 0 0,0
19.06.2018 14:00:00 17,0 11,9 18 10 - - E 1021,9 14 0 0,0
19.06.2018 13:00:00 15,5 11,6 15 8 - - E 1022,3 28 0 0,0
19.06.2018 12:00:00 16,9 12,3 11 6 - - ENE 1022,2 40 18 0,0
19.06.2018 11:00:00 17,0 12,9 8 4 - - NE 1022,4 45 18 0,0
19.06.2018 10:00:00 17,2 14,5 8 4 - - NNW 1022,4 27 6 0,0
19.06.2018 09:00:00 15,7 14,3 8 4 - - NW 1022,1 45 0 0,4
19.06.2018 08:00:00 16,0 14,9 16 9 - - WNW 1021,7 7 0 0,0
19.06.2018 07:00:00 16,8 15,1 15 8 - - WSW 1020,8 9 0 0,0
19.06.2018 06:00:00 16,9 14,9 16 9 - - WSW 1020,0 50 0 0,0
19.06.2018 05:00:00 17,2 14,9 22 12 - - W 1019,4 50 0 0,0
19.06.2018 04:00:00 17,4 14,8 26 14 - - WSW 1018,4 50 0 0,0
19.06.2018 03:00:00 17,3 15,1 29 16 46 25 WSW 1018,0 50 0 0,0

tt = temperature
td = dewpoint
ff = wind speed
fx = gusts
dd = wind direction
ppp = reduced air pressure
vv = visibility
sd = sunshine duration
rr = precipitation

Next stations